Skip Page Navigation
NASA JPL Caltech
NASA Logo - Jet Propulsion Laboratory + View the NASA Portal
+ Center for Near-Earth Object Studies
JPL Home Earth Solar System Stars & Galaxies Technology
JPL Solar System Dynamics
BODIES ORBITS EPHEMERIDES TOOLS PHYSICAL DATA DISCOVERY FAQ SITE MAP
IMPORTANT: The SSD Announcement email list is now available. Major changes are coming in the near future, including possible hostname and/or URL changes. To be notified of such changes, subscribe to this email list.

Please visit this page for more details.


JPL Small-Body Database Browser
Search: [ help ]  
324137 (2005 YH86)
Classification: Main-belt Asteroid          SPK-ID: 2324137
Ephemeris | Orbit Diagram | Orbital Elements | Mission Design | Physical Parameters | Discovery Circumstances | Close-Approach Data ]

[ show orbit diagram ]
Orbital Elements at Epoch 2458600.5 (2019-Apr-27.0) TDB
Reference: JPL 16 (heliocentric ecliptic J2000)
 Element Value Uncertainty (1-sigma)   Units 
e .08317915545913135 5.9456e-08  
a 3.022298503596701 3.897e-08 au
q 2.770906266522131 1.7277e-07 au
i 9.027363978956332 6.5661e-06 deg
node 102.0449484166279 3.4285e-05 deg
peri 185.82482280979 4.7612e-05 deg
M 10.69650624859789 3.2458e-05 deg
tp 2458543.477807815743
(2019-Feb-28.97780782)
0.00017309 TDB
period 1919.130294438267
5.25
3.7119e-05
1.016e-07
d
yr
n .1875849706730686 3.6282e-09 deg/d
Q 3.273690740671271 4.2212e-08 au
  Orbit Determination Parameters
   # obs. used (total)      227  
   data-arc span      6341 days (17.36 yr)  
   first obs. used      2002-04-12  
   last obs. used      2019-08-22  
   planetary ephem.      DE431  
   SB-pert. ephem.      SB431-N16  
   condition code      0  
   norm. resid. RMS      .59901  
   source      ORB  
   producer      Otto Matic  
   solution date      2019-Sep-24 06:12:51  

Additional Information
 Earth MOID = 1.75405 au 
 Jupiter MOID = 1.86799 au 
 T_jup = 3.222 
[ show covariance matrix ]

Ephemeris | Orbit Diagram | Orbital Elements | Mission Design | Physical Parameters | Discovery Circumstances | Close-Approach Data ]

Physical Parameter Table
Parameter Symbol Value Units Sigma Reference Notes
absolute magnitude H 15.8   n/a MPO450270  

324137 (2005 YH86)          Discovered 2005-Dec-02 by Mt. Lemmon Survey at Mount Lemmon
Reference: 20120406/Numbers.arcLast Updated: 2012-04-09

[ show close-approach data ]
Ephemeris | Orbit Diagram | Orbital Elements | Mission Design | Physical Parameters | Discovery Circumstances | Close-Approach Data ]
ABOUT SSD CREDITS/AWARDS PRIVACY/COPYRIGHT GLOSSARY LINKS
FirstGov
(server date/time)  
NASA Home Page
Site Manager:   Ryan S. Park
Webmaster  Alan B. Chamberlin